DELTA 1 DEB, 10840

Orbit data source: Space-Track

DELTA 1 DEB, 10840 is space debris in SSO originally from a launch on Thu, 29 Jul 1976 UTC launched from the Air Force Western Test Range (AFWTR). Debris objects in space refer to the collection of defunct objects orbiting the Earth. Examples of debris include non-operational satellites, rocket bodies, and fragments generated from explosions, collisions, or faulty payload assembly.

Loading next visibility...
Identifier
10840, 1976-077CL
Orbit
SSO
Country
Flag of USUS
Related business
Manufacturer
Unknown
Mission
Spacecraft
Bus & Motor
Unknown
Mass
Unknown
Launch date (UTC)
1976-07-29 (50 years ago)
Launch vehicle
Unknown
Launch site
Air Force Western Test Range (AFWTR)
Object type
Payload
Rocket body
Debris
Shape & HBR
Unknown shape, 0.3 m
Radar Cross Section
Medium (>0.1 m² and <1 m²)

Expand to show TLE details & history
Last TLE update: 10 hours ago

TLE from 10 hours ago
0 DELTA 1 DEB
1 10840U 76077CL  26118.87178153 -.00000039  00000-0  47337-4 0  9999
2 10840 102.6235 218.0249 0142175 119.6541 354.3887 12.16054939208948
Epoch: 2026-04-28T20:55Z
TLE epoch observation values (Epoch: 2026-04-28T20:55:21.924Z)
Latitude
63.25017°
Longitude
-106.4163°
Altitude
1,507.402 km
Speed
7.167 km/s
True Right ascension
04h 17m 03s
True Declination
63° 07' 30"
Sunlit
Object was in daylight at epoch
Visualization orbit readout
Latitude
Unknown
Longitude
Unknown
Altitude
Unknown
Speed
Unknown
Apparent Right ascension
Unknown
Apparent Declination
Unknown
Sunlit
N/A
Visualization observer readout
Local Sidereal Time
14:42:59
Azimuth
Unknown
Elevation
Unknown
Doppler factor
Unknown
Orbital elements
Apogee altitude
1,720.948 km
Perigee altitude
1,493.879 km
Semi-major axis
7,985.551 km
Eccentricity
0.01422
Inclination
102.6235°
RAAN
218.0249°
Arg. of periapsis
119.6541°
True anomaly
354.22653°
Mean anomaly
354.3887°
Eccentric anomaly
354.30791°
Mean motion
3.04149 °/min
Orbital period
118.36 mins
BSTAR
0.000047337
Loading maneuver chart data...
Computing Atmospheric mass density...
Loading historical data...
Loading historical data...
Loading historical data...
Loading historical data...
Loading historical data...
Loading historical data...
Loading historical data...

Documentation

Showing up to 5 results
|